Weather in Bolshiye Shcherbinichi

Russia / Bryansk Oblast     52°18′57″N   31°52′17″E
temp.,
°C
wind,
m/s
gust,
m/s
humid.,
%
clouds,
%
prec.,
mm/h
press.,
hPa
HPBL,
m
8 march, mon
mon800:00−1wnw4897100 1.5 1006461
03:00−3w3892100 2.1 1006213
06:00−4wsw499595 0.1 1006264
09:00−4wnw599395 0.3 1007566
12:00−2wnw578695 0.1 1008817
15:00−2wnw468898 0.4 1008786
18:00−3nw3784100 0.5 1010179
21:00−6nnw4108697 1.3 1012426
9 march, tue
tue900:00−9nw359426 0.0 101493
03:00−10nnw369633 0.0 1016103
06:00−12nnw359550 0.0 101896
09:00−11nnw489354 0.0 1020339
12:00−7nnw46790 0.0 1021756
15:00−5nnw457717 0.0 10221108
18:00−6nw3783100 0.1 1022257
21:00−10nnw338962 0.1 102536
10 march, wed
wed1000:00−12nnw12900 0.0 102621
03:00−13wnw11890 0.0 102721
06:00−13sw118632 0.0 102721
09:00−10sw238746 0.0 1027118
12:00−5wsw347943 0.0 1027502
15:00−2w347231 0.0 1027902
18:00−5w118025 0.0 102621
21:00−9ssw228626 0.0 102721
11 march, thu
thu1100:00−10wsw228863 0.0 102921
03:00−10e118978 0.0 102921
06:00−12e339699 0.0 103066
09:00−11ese3595100 0.0 1031162
12:00−7se349189 0.0 1030349
15:00−4se458795 0.1 1030613
18:00−5sse4687100 0.1 1028519
21:00−9se479367 0.1 1028127
12 march, fri
fri1200:00−11se499628 0.0 1028187
03:00−11sse4109656 0.0 1026205
06:00−9sse6138997 0.0 1024310
09:00−6sse8168498 0.0 1023553
12:00−3s101680100 0.0 1021949
15:00−3s121793100 0.3 10201088
18:00−3s111794100 1.6 10181069
21:00−3s111894100 4.1 1017977